| time (UTC) | temp F | wind direction | speed MPH | gust MPH | rain 1hr in | rain 24hr in | rain mn in | humidity % | barometer mb |
| 20260503225428 | 78 | 141 | 1.0 | 2.0 | 0.00 | 0.00 | 0.00 | 46 | 1018.0 |
| 20260503224923 | 78 | 165 | 2.0 | 3.0 | 0.00 | 0.00 | 0.00 | 44 | 1018.0 |
| 20260503224420 | 77 | 168 | 2.0 | 3.0 | 0.00 | 0.00 | 0.00 | 45 | 1018.1 |
| 20260503223918 | 79 | 140 | 4.0 | 5.0 | 0.00 | 0.00 | 0.00 | 42 | 1018.0 |
| 20260503223416 | 80 | 121 | 3.0 | 3.0 | 0.00 | 0.00 | 0.00 | 39 | 1018.1 |
| 20260503222911 | 80 | 166 | 1.0 | 3.0 | 0.00 | 0.00 | 0.00 | 42 | 1018.1 |
| 20260503222410 | 80 | 204 | 3.0 | 5.0 | 0.00 | 0.00 | 0.00 | 44 | 1018.2 |
| 20260503221907 | 80 | 218 | 3.0 | 5.0 | 0.00 | 0.00 | 0.00 | 40 | 1018.2 |
| 20260503221406 | 80 | 214 | 5.0 | 7.0 | 0.00 | 0.00 | 0.00 | 42 | 1018.5 |
| 20260503220902 | 80 | 163 | 2.0 | 3.0 | 0.00 | 0.00 | 0.00 | 42 | 1018.3 |
| 20260503220358 | 80 | 188 | 5.0 | 5.0 | 0.00 | 0.00 | 0.00 | 45 | 1018.6 |
| 20260503215855 | 81 | 232 | 5.0 | 7.0 | 0.00 | 0.00 | 0.00 | 44 | 1018.5 |
| 20260503215353 | 80 | 112 | 3.0 | 5.0 | 0.00 | 0.00 | 0.00 | 43 | 1018.6 |
| 20260503214850 | 80 | 188 | 4.0 | 5.0 | 0.00 | 0.00 | 0.00 | 42 | 1018.9 |
| 20260503214347 | 80 | 133 | 7.0 | 10.0 | 0.00 | 0.00 | 0.00 | 40 | 1018.6 |
| 20260503213845 | 80 | 223 | 6.0 | 17.0 | 0.00 | 0.00 | 0.00 | 40 | 1019.0 |
| 20260503213342 | 80 | 180 | 2.0 | 3.0 | 0.00 | 0.00 | 0.00 | 41 | 1019.3 |
| 20260503212839 | 80 | 184 | 6.0 | 7.0 | 0.00 | 0.00 | 0.00 | 40 | 1019.4 |
| 20260503212337 | 80 | 129 | 7.0 | 10.0 | 0.00 | 0.00 | 0.00 | 40 | 1019.3 |
| 20260503211834 | 79 | 177 | 5.0 | 7.0 | 0.00 | 0.00 | 0.00 | 43 | 1019.6 |
| 20260503211330 | 79 | 153 | 1.0 | 2.0 | 0.00 | 0.00 | 0.00 | 43 | 1019.5 |
| 20260503210825 | 79 | 140 | 10.0 | 14.0 | 0.00 | 0.00 | 0.00 | 41 | 1019.6 |
| 20260503210323 | 79 | 134 | 5.0 | 9.0 | 0.00 | 0.00 | 0.00 | 43 | 1019.6 |
| 20260503205818 | 80 | 134 | 7.0 | 9.0 | 0.00 | 0.00 | 0.00 | 42 | 1019.4 |
| 20260503205315 | 80 | 142 | 4.0 | 7.0 | 0.00 | 0.00 | 0.00 | 38 | 1019.6 |
| 20260503204811 | 80 | 142 | 4.0 | 7.0 | 0.00 | 0.00 | 0.00 | 40 | 1019.7 |
| 20260503204309 | 79 | 139 | 4.0 | 7.0 | 0.00 | 0.00 | 0.00 | 41 | 1019.9 |
| 20260503203806 | 79 | 147 | 3.0 | 7.0 | 0.00 | 0.00 | 0.00 | 43 | 1020.1 |
| 20260503203303 | 80 | 165 | 5.0 | 7.0 | 0.00 | 0.00 | 0.00 | 39 | 1020.1 |
| 20260503202800 | 80 | 179 | 4.0 | 5.0 | 0.00 | 0.00 | 0.00 | 42 | 1020.4 |
| 20260503202258 | 80 | 145 | 3.0 | 5.0 | 0.00 | 0.00 | 0.00 | 42 | 1020.4 |
| 20260503201756 | 80 | 200 | 5.0 | 7.0 | 0.00 | 0.00 | 0.00 | 40 | 1020.5 |
| 20260503201253 | 80 | 168 | 2.0 | 3.0 | 0.00 | 0.00 | 0.00 | 44 | 1020.4 |
| 20260503200750 | 81 | 154 | 5.0 | 7.0 | 0.00 | 0.00 | 0.00 | 41 | 1020.5 |
| 20260503200245 | 80 | 162 | 2.0 | 3.0 | 0.00 | 0.00 | 0.00 | 44 | 1020.5 |
| 20260503195743 | 80 | 161 | 2.0 | 5.0 | 0.00 | 0.00 | 0.00 | 43 | 1020.6 |
| 20260503195240 | 80 | 209 | 3.0 | 5.0 | 0.00 | 0.00 | 0.00 | 43 | 1020.8 |
| 20260503194738 | 79 | 197 | 6.0 | 7.0 | 0.00 | 0.00 | 0.00 | 45 | 1020.7 |
| 20260503194233 | 79 | 175 | 2.0 | 3.0 | 0.00 | 0.00 | 0.00 | 45 | 1020.9 |
| 20260503193729 | 79 | 169 | 8.0 | 10.0 | 0.00 | 0.00 | 0.00 | 42 | 1020.8 |
| 20260503193226 | 79 | 149 | 7.0 | 7.0 | 0.00 | 0.00 | 0.00 | 39 | 1020.8 |
| 20260503192721 | 79 | 171 | 5.0 | 5.0 | 0.00 | 0.00 | 0.00 | 44 | 1021.1 |
| 20260503192217 | 80 | 180 | 5.0 | 5.0 | 0.00 | 0.00 | 0.00 | 43 | 1021.1 |
| 20260503191714 | 79 | 163 | 4.0 | 9.0 | 0.00 | 0.00 | 0.00 | 43 | 1021.2 |
| 20260503191211 | 80 | 173 | 5.0 | 7.0 | 0.00 | 0.00 | 0.00 | 41 | 1021.4 |
| 20260503190708 | 79 | 186 | 5.0 | 7.0 | 0.00 | 0.00 | 0.00 | 42 | 1021.4 |
| 20260503190204 | 79 | 142 | 3.0 | 5.0 | 0.00 | 0.00 | 0.00 | 47 | 1021.5 |
| 20260503185702 | 79 | 186 | 5.0 | 7.0 | 0.00 | 0.00 | 0.00 | 44 | 1021.5 |
| 20260503185202 | 79 | 171 | 3.0 | 5.0 | 0.00 | 0.00 | 0.00 | 46 | 1021.6 |
| 20260503184657 | 78 | 143 | 3.0 | 7.0 | 0.00 | 0.00 | 0.00 | 47 | 1021.8 |
| 20260503184153 | 78 | 206 | 4.0 | 5.0 | 0.00 | 0.00 | 0.00 | 41 | 1021.7 |
| 20260503183649 | 79 | 159 | 10.0 | 10.0 | 0.00 | 0.00 | 0.00 | 43 | 1021.7 |
| 20260503183147 | 79 | 148 | 4.0 | 7.0 | 0.00 | 0.00 | 0.00 | 48 | 1021.8 |
| 20260503182645 | 79 | 144 | 1.0 | 3.0 | 0.00 | 0.00 | 0.00 | 48 | 1021.9 |
| 20260503182144 | 78 | 202 | 10.0 | 14.0 | 0.00 | 0.00 | 0.00 | 40 | 1022.1 |
| 20260503181641 | 79 | 196 | 5.0 | 7.0 | 0.00 | 0.00 | 0.00 | 43 | 1022.3 |
| 20260503181138 | 78 | 170 | 5.0 | 10.0 | 0.00 | 0.00 | 0.00 | 44 | 1022.2 |
| 20260503180635 | 78 | 181 | 4.0 | 9.0 | 0.00 | 0.00 | 0.00 | 44 | 1022.3 |
| 20260503180132 | 78 | 159 | 4.0 | 7.0 | 0.00 | 0.00 | 0.00 | 45 | 1022.4 |
| 20260503175629 | 78 | 170 | 4.0 | 5.0 | 0.00 | 0.00 | 0.00 | 45 | 1022.4 |
| 20260503175126 | 77 | 231 | 6.0 | 7.0 | 0.00 | 0.00 | 0.00 | 44 | 1022.5 |
| 20260503174622 | 78 | 237 | 4.0 | 7.0 | 0.00 | 0.00 | 0.00 | 45 | 1022.6 |
| 20260503174119 | 77 | 200 | 4.0 | 5.0 | 0.00 | 0.00 | 0.00 | 47 | 1022.8 |
| 20260503173614 | 77 | 155 | 4.0 | 7.0 | 0.00 | 0.00 | 0.00 | 47 | 1022.8 |
| 20260503173111 | 77 | 215 | 5.0 | 7.0 | 0.00 | 0.00 | 0.00 | 49 | 1022.9 |
| 20260503172608 | 77 | 181 | 5.0 | 7.0 | 0.00 | 0.00 | 0.00 | 48 | 1022.9 |
| 20260503172106 | 76 | 202 | 5.0 | 7.0 | 0.00 | 0.00 | 0.00 | 47 | 1023.1 |
| 20260503171603 | 77 | 205 | 4.0 | 7.0 | 0.00 | 0.00 | 0.00 | 47 | 1023.2 |
| 20260503171100 | 77 | 215 | 5.0 | 7.0 | 0.00 | 0.00 | 0.00 | 46 | 1023.4 |
| 20260503170555 | 77 | 164 | 5.0 | 7.0 | 0.00 | 0.00 | 0.00 | 46 | 1023.4 |
| 20260503150942 | 71 | 171 | 2.0 | 3.0 | 0.00 | 0.00 | 0.00 | 65 | 1023.7 |
| 20260503150433 | 71 | 194 | 3.0 | 3.0 | 0.00 | 0.00 | 0.00 | 70 | 1023.4 |
| 20260503131320 | 53 | 136 | 0.0 | 0.0 | 0.00 | 0.00 | 0.00 | 99 | 1023.0 |
| 20260503130818 | 54 | 158 | 0.0 | 0.0 | 0.00 | 0.00 | 0.00 | 99 | 1023.0 |
| 20260503130315 | 53 | 158 | 0.0 | 0.0 | 0.00 | 0.00 | 0.00 | 99 | 1022.8 |
| 20260503110703 | 50 | 135 | 0.0 | 0.0 | 0.00 | 0.00 | 0.00 | 99 | 1021.9 |
| 20260503110200 | 50 | 135 | 0.0 | 0.0 | 0.00 | 0.00 | 0.00 | 99 | 1021.9 |
| 20260503100126 | 50 | 133 | 0.0 | 0.0 | 0.00 | 0.00 | 0.00 | 99 | 1021.6 |
| 20260503081516 | 50 | 132 | 0.0 | 0.0 | 0.00 | 0.00 | 0.00 | 98 | 1021.7 |
| 20260503081013 | 51 | 132 | 0.0 | 0.0 | 0.00 | 0.00 | 0.00 | 98 | 1021.6 |
| 20260503080509 | 51 | 132 | 0.0 | 0.0 | 0.00 | 0.00 | 0.00 | 98 | 1021.6 |
| 20260503072443 | 51 | 132 | 0.0 | 0.0 | 0.00 | 0.00 | 0.00 | 98 | 1021.9 |
| 20260503071940 | 51 | 132 | 0.0 | 0.0 | 0.00 | 0.00 | 0.00 | 98 | 1022.0 |
| 20260503071437 | 51 | 132 | 0.0 | 0.0 | 0.00 | 0.00 | 0.00 | 98 | 1022.0 |
| 20260503070933 | 51 | 132 | 0.0 | 0.0 | 0.00 | 0.00 | 0.00 | 98 | 1021.9 |
| 20260503070430 | 52 | 132 | 0.0 | 0.0 | 0.00 | 0.00 | 0.00 | 98 | 1022.1 |
| 20260503054843 | 53 | 132 | 0.0 | 0.0 | 0.00 | 0.00 | 0.00 | 97 | 1022.2 |
| 20260503054339 | 54 | 132 | 0.0 | 0.0 | 0.00 | 0.00 | 0.00 | 97 | 1022.3 |
| 20260503053837 | 54 | 132 | 0.0 | 0.0 | 0.00 | 0.00 | 0.00 | 97 | 1022.3 |
| 20260503053336 | 54 | 132 | 0.0 | 0.0 | 0.00 | 0.00 | 0.00 | 97 | 1022.2 |
| 20260503052831 | 54 | 132 | 0.0 | 0.0 | 0.00 | 0.00 | 0.00 | 97 | 1022.3 |
| 20260503052329 | 54 | 132 | 0.0 | 0.0 | 0.00 | 0.00 | 0.00 | 97 | 1022.1 |
| 20260503051825 | 54 | 132 | 0.0 | 0.0 | 0.00 | 0.00 | 0.00 | 97 | 1022.2 |
| 20260503051321 | 54 | 132 | 0.0 | 0.0 | 0.00 | 0.00 | 0.00 | 97 | 1022.2 |
| 20260503050818 | 54 | 132 | 0.0 | 0.0 | 0.00 | 0.00 | 0.00 | 96 | 1022.1 |
| 20260503050314 | 54 | 132 | 0.0 | 0.0 | 0.00 | 0.00 | 0.00 | 96 | 1022.1 |
| 20260503045812 | 54 | 132 | 0.0 | 0.0 | 0.00 | 0.00 | 0.00 | 96 | 1022.2 |
| 20260503045310 | 55 | 132 | 0.0 | 0.0 | 0.00 | 0.00 | 0.00 | 96 | 1022.1 |
| 20260503044806 | 55 | 132 | 0.0 | 0.0 | 0.00 | 0.00 | 0.00 | 96 | 1022.0 |
| 20260503044303 | 55 | 132 | 0.0 | 0.0 | 0.00 | 0.00 | 0.00 | 96 | 1022.1 |
| 20260503043800 | 55 | 132 | 0.0 | 0.0 | 0.00 | 0.00 | 0.00 | 95 | 1022.1 |
| 20260503043257 | 55 | 132 | 0.0 | 0.0 | 0.00 | 0.00 | 0.00 | 95 | 1021.9 |
| 20260503042753 | 55 | 132 | 0.0 | 0.0 | 0.00 | 0.00 | 0.00 | 95 | 1022.0 |
| 20260503042250 | 55 | 132 | 0.0 | 0.0 | 0.00 | 0.00 | 0.00 | 94 | 1021.9 |
| 20260503041745 | 55 | 132 | 0.0 | 0.0 | 0.00 | 0.00 | 0.00 | 94 | 1022.1 |
| 20260503041244 | 56 | 132 | 0.0 | 0.0 | 0.00 | 0.00 | 0.00 | 94 | 1021.9 |
| 20260503040741 | 56 | 132 | 0.0 | 0.0 | 0.00 | 0.00 | 0.00 | 94 | 1022.0 |
| 20260503040239 | 57 | 132 | 0.0 | 0.0 | 0.00 | 0.00 | 0.00 | 93 | 1022.1 |
| 20260503035735 | 57 | 132 | 0.0 | 0.0 | 0.00 | 0.00 | 0.00 | 93 | 1022.0 |
| 20260503035232 | 57 | 132 | 0.0 | 0.0 | 0.00 | 0.00 | 0.00 | 93 | 1021.9 |
| 20260503034730 | 57 | 132 | 0.0 | 0.0 | 0.00 | 0.00 | 0.00 | 92 | 1021.9 |
| 20260503034226 | 56 | 132 | 0.0 | 0.0 | 0.00 | 0.00 | 0.00 | 91 | 1021.9 |
| 20260503033724 | 57 | 132 | 0.0 | 0.0 | 0.00 | 0.00 | 0.00 | 90 | 1021.9 |
| 20260503033221 | 57 | 132 | 0.0 | 0.0 | 0.00 | 0.00 | 0.00 | 90 | 1022.0 |
| 20260503032720 | 57 | 132 | 0.0 | 0.0 | 0.00 | 0.00 | 0.00 | 89 | 1021.7 |
| 20260503032218 | 57 | 132 | 0.0 | 0.0 | 0.00 | 0.00 | 0.00 | 88 | 1021.6 |
| 20260503031714 | 58 | 132 | 0.0 | 0.0 | 0.00 | 0.00 | 0.00 | 87 | 1021.8 |
| 20260503031213 | 58 | 132 | 0.0 | 0.0 | 0.00 | 0.00 | 0.00 | 86 | 1021.8 |
| 20260503030708 | 59 | 132 | 0.0 | 0.0 | 0.00 | 0.00 | 0.00 | 85 | 1021.6 |
| 20260503030205 | 59 | 132 | 0.0 | 0.0 | 0.00 | 0.00 | 0.00 | 83 | 1021.6 |
| 20260503025702 | 60 | 131 | 0.0 | 0.0 | 0.00 | 0.00 | 0.00 | 82 | 1021.5 |
| 20260503025200 | 61 | 131 | 0.0 | 0.0 | 0.00 | 0.00 | 0.00 | 79 | 1021.5 |
| 20260503024656 | 62 | 131 | 0.0 | 0.0 | 0.00 | 0.00 | 0.00 | 78 | 1021.3 |
| 20260503024154 | 62 | 131 | 0.0 | 0.0 | 0.00 | 0.00 | 0.00 | 77 | 1021.2 |
| 20260503023650 | 62 | 131 | 0.0 | 0.0 | 0.00 | 0.00 | 0.00 | 76 | 1021.3 |
| 20260503023147 | 62 | 131 | 0.0 | 0.0 | 0.00 | 0.00 | 0.00 | 76 | 1021.2 |
| 20260503022644 | 62 | 131 | 0.0 | 0.0 | 0.00 | 0.00 | 0.00 | 78 | 1021.3 |
| 20260503022143 | 62 | 131 | 0.0 | 0.0 | 0.00 | 0.00 | 0.00 | 76 | 1021.3 |
| 20260503021640 | 63 | 131 | 0.0 | 0.0 | 0.00 | 0.00 | 0.00 | 73 | 1021.2 |
| 20260503021136 | 64 | 131 | 0.0 | 0.0 | 0.00 | 0.00 | 0.00 | 70 | 1021.3 |
| 20260503020634 | 63 | 131 | 0.0 | 0.0 | 0.00 | 0.00 | 0.00 | 70 | 1021.0 |
| 20260503020131 | 62 | 131 | 0.0 | 0.0 | 0.00 | 0.00 | 0.00 | 72 | 1021.0 |
| 20260503015628 | 63 | 131 | 0.0 | 0.0 | 0.00 | 0.00 | 0.00 | 70 | 1021.2 |
| 20260503015125 | 64 | 131 | 0.0 | 0.0 | 0.00 | 0.00 | 0.00 | 70 | 1021.0 |
| 20260503014620 | 65 | 131 | 0.0 | 0.0 | 0.00 | 0.00 | 0.00 | 69 | 1021.0 |
| 20260503014118 | 65 | 131 | 0.0 | 0.0 | 0.00 | 0.00 | 0.00 | 68 | 1021.0 |
| 20260503013615 | 66 | 131 | 0.0 | 0.0 | 0.00 | 0.00 | 0.00 | 67 | 1020.8 |
| 20260503013114 | 66 | 131 | 0.0 | 0.0 | 0.00 | 0.00 | 0.00 | 65 | 1020.6 |
| 20260503012611 | 66 | 131 | 0.0 | 0.0 | 0.00 | 0.00 | 0.00 | 66 | 1020.6 |
| 20260503012107 | 67 | 131 | 0.0 | 0.0 | 0.00 | 0.00 | 0.00 | 66 | 1020.6 |
| 20260503011603 | 67 | 131 | 0.0 | 0.0 | 0.00 | 0.00 | 0.00 | 65 | 1020.4 |
| 20260503011101 | 67 | 131 | 0.0 | 0.0 | 0.00 | 0.00 | 0.00 | 66 | 1020.7 |
| 20260503010557 | 67 | 131 | 0.0 | 0.0 | 0.00 | 0.00 | 0.00 | 67 | 1020.6 |
| 20260503010055 | 68 | 131 | 0.0 | 0.0 | 0.00 | 0.00 | 0.00 | 66 | 1020.4 |
| 20260503005551 | 68 | 131 | 0.0 | 0.0 | 0.00 | 0.00 | 0.00 | 64 | 1020.5 |
| 20260503005049 | 69 | 131 | 0.0 | 0.0 | 0.00 | 0.00 | 0.00 | 61 | 1020.5 |
| 20260503004544 | 69 | 131 | 0.0 | 0.0 | 0.00 | 0.00 | 0.00 | 62 | 1020.6 |
| 20260503004043 | 70 | 131 | 0.0 | 0.0 | 0.00 | 0.00 | 0.00 | 60 | 1020.5 |
| 20260503003539 | 70 | 131 | 0.0 | 0.0 | 0.00 | 0.00 | 0.00 | 58 | 1020.4 |
| 20260503003037 | 70 | 131 | 0.0 | 0.0 | 0.00 | 0.00 | 0.00 | 58 | 1020.5 |
| 20260503002533 | 71 | 131 | 0.0 | 0.0 | 0.00 | 0.00 | 0.00 | 57 | 1020.2 |
| 20260503002030 | 71 | 131 | 0.0 | 0.0 | 0.00 | 0.00 | 0.00 | 57 | 1020.3 |
| 20260503001527 | 71 | 132 | 0.0 | 0.0 | 0.00 | 0.00 | 0.00 | 55 | 1020.4 |
| 20260503001024 | 72 | 136 | 0.0 | 0.0 | 0.00 | 0.00 | 0.00 | 53 | 1020.2 |
| 20260503000522 | 72 | 136 | 0.0 | 0.0 | 0.00 | 0.00 | 0.00 | 52 | 1020.2 |
| 20260503000018 | 72 | 126 | 1.0 | 2.0 | 0.00 | 0.00 | 0.00 | 53 | 1020.2 |
| 20260502235515 | 72 | 131 | 2.0 | 2.0 | 0.00 | 0.00 | 0.00 | 50 | 1020.3 |
| 20260502235013 | 73 | 70 | 4.0 | 5.0 | 0.00 | 0.00 | 0.00 | 49 | 1020.4 |
| 20260502234509 | 73 | 101 | 1.0 | 2.0 | 0.00 | 0.00 | 0.00 | 50 | 1020.2 |
| 20260502234007 | 73 | 126 | 2.0 | 3.0 | 0.00 | 0.00 | 0.00 | 47 | 1020.4 |
| 20260502233506 | 73 | 86 | 2.0 | 3.0 | 0.00 | 0.00 | 0.00 | 48 | 1020.2 |
| 20260502233004 | 73 | 11 | 0.0 | 0.0 | 0.00 | 0.00 | 0.00 | 46 | 1020.2 |
| 20260502232500 | 74 | 39 | 2.0 | 5.0 | 0.00 | 0.00 | 0.00 | 50 | 1020.1 |
| 20260502231957 | 74 | 140 | 1.0 | 2.0 | 0.00 | 0.00 | 0.00 | 52 | 1020.2 |
| 20260502231454 | 74 | 131 | 1.0 | 2.0 | 0.00 | 0.00 | 0.00 | 53 | 1020.1 |
| 20260502230952 | 74 | 131 | 2.0 | 2.0 | 0.00 | 0.00 | 0.00 | 51 | 1020.3 |
| 20260502230450 | 74 | 116 | 2.0 | 3.0 | 0.00 | 0.00 | 0.00 | 50 | 1020.1 |
| 20260502225947 | 75 | 55 | 1.0 | 3.0 | 0.00 | 0.00 | 0.00 | 47 | 1020.2 |
| 20260502225444 | 75 | 118 | 2.0 | 3.0 | 0.00 | 0.00 | 0.00 | 51 | 1019.9 |